Location: �terpigny
(49.8910°N, 2.9249°E)
Time: 10:38:25
(UTC+00:00)

CUBESAT XI-V - Pass Details

Date: 29 June 2022
Orbit: 668 x 690 km, 98.1° (Epoch: 17 August)

Event Time Altitude Azimuth Distance (km) Brightness Sun altitude
Exits shadow 00:07:20 - 120° (ESE) 2,609 ? -16.8°
Reaches altitude 10° 00:08:49 10° 110° (ESE) 2,110 ? -16.8°
Maximum altitude 00:12:19 22° 61° (ENE) 1,473 ? -16.7°
Drops below altitude 10° 00:15:48 10° 11° (N) 2,113 ? -16.7°
Sets 00:18:27 0° 357° (N) 3,029 ? -16.6°
